Goshen, IN

8:37 AM EDT on September 19, 2017 (GMT -0400)
Goshen Municipal

Weather History for KGSH - February, 2015

Change the Weather History Date:

Tuesday, February 24, 2015

  Actual Average Record
Temperature  
Mean Temperature 13 °F -  
Max Temperature 26 °F 38 °F 64 °F (2017)
Min Temperature 0 °F 24 °F 0 °F (1989)
Degree Days  
Heating Degree Days 52    
Moisture  
Dew Point 4 °F    
Average Humidity 68    
Maximum Humidity 78    
Minimum Humidity 55    
Precipitation  
Precipitation 0.00 in - - ()
Sea Level Pressure  
Sea Level Pressure 29.93 in    
Wind  
Wind Speed 13 mph (SW)    
Max Wind Speed 26 mph    
Max Gust Speed 36 mph    
Visibility 9 miles    
Events Snow    
Averages and records for this station are not official NWS values.
T = Trace of Precipitation, MM = Missing Value Source: NWS Daily Summary

Daily Weather History Graph

Daily Weather History Graph

Search for Another Location

Airport or City:

Trip Planner

Search our weather history database for the weather conditions in past years. The results will help you decide how hot, cold, wet, or windy it might be!

Date:

Astronomy

Feb. 24, 2015 Rise Set
Actual Time 7:25 AM EST 6:27 PM EST
Civil Twilight 6:57 AM EST 6:55 PM EST
Nautical Twilight 6:25 AM EST 7:27 PM EST
Astronomical Twilight 5:53 AM EST 7:59 PM EST
Moon 10:56 AM EST (2/24) 12:18 AM EST (2/24)
Length of Visible Light 11h 57m
Length of Day
11h 01m
Waxing Crescent, 39% of the Moon is Illuminated
Feb 24
Waxing Crescent
Feb 25
First Quarter
Mar 5
Full
Mar 13
Last Quarter
Mar 20
New

Hourly Weather History & Observations

Time (EST) Temp. Windchill Dew Point Humidity Pressure Visibility Wind Dir Wind Speed Gust Speed Precip Events Conditions
12:53 AM -0.0 °F -14.2 °F -7.1 °F 72% 30.34 in 10.0 mi SSW 8.1 mph - N/A   Clear
1:53 AM 1.9 °F -10.6 °F -5.1 °F 72% 30.31 in 10.0 mi SW 6.9 mph - N/A   Clear
2:53 AM -0.0 °F -13.0 °F -6.0 °F 76% 30.28 in 10.0 mi SSW 6.9 mph - N/A   Clear
3:53 AM 1.0 °F -15.8 °F -5.1 °F 75% 30.23 in 10.0 mi SSW 11.5 mph - N/A   Clear
4:53 AM 1.0 °F -16.6 °F -6.0 °F 72% 30.20 in 10.0 mi SSW 12.7 mph - N/A   Clear
5:53 AM 1.0 °F -17.3 °F -6.0 °F 72% 30.14 in 10.0 mi South 13.8 mph - N/A   Clear
6:53 AM 1.9 °F -15.5 °F -8.0 °F 63% 30.09 in 10.0 mi SSW 12.7 mph - N/A   Clear
7:53 AM 1.9 °F -16.2 °F -9.0 °F 60% 30.05 in 10.0 mi SSW 13.8 mph - N/A   Clear
8:53 AM 3.9 °F -15.6 °F -9.0 °F 55% 30.01 in 10.0 mi South 17.3 mph - N/A   Clear
9:53 AM 7.0 °F -12.1 °F -6.0 °F 55% 29.97 in 10.0 mi SSW 18.4 mph - N/A   Clear
10:53 AM 9.0 °F -11.0 °F -2.0 °F 61% 29.92 in 8.0 mi SSW 21.9 mph 31.1 mph N/A   Overcast
11:53 AM 12.0 °F -5.6 °F 1.0 °F 61% 29.89 in 10.0 mi SW 18.4 mph - N/A   Partly Cloudy
12:53 PM 16.0 °F -1.3 °F 5.0 °F 62% 29.84 in 8.0 mi SW 20.7 mph - N/A   Mostly Cloudy
1:53 PM 18.0 °F -0.5 °F 7.0 °F 62% 29.78 in 5.0 mi SW 26.5 mph 35.7 mph N/A   Haze
2:53 PM 19.9 °F 4.8 °F 9.0 °F 62% 29.76 in 10.0 mi SW 18.4 mph 29.9 mph N/A   Overcast
3:53 PM 21.9 °F 6.5 °F 10.9 °F 63% 29.75 in 10.0 mi WSW 20.7 mph 26.5 mph N/A   Overcast
4:53 PM 23.0 °F 8.0 °F 15.1 °F 72% 29.75 in 3.0 mi West 20.7 mph 25.3 mph 0.00 in Snow Light Snow
5:53 PM 24.1 °F 10.1 °F 17.1 °F 75% 29.75 in 5.0 mi WSW 18.4 mph - 0.00 in Snow Light Snow
6:26 PM 24.1 °F 10.6 °F 17.1 °F 75% 29.69 in 6.0 mi WSW 17.3 mph - 0.00 in Snow Light Snow
6:53 PM 24.1 °F 10.1 °F 17.1 °F 75% 29.74 in 10.0 mi WSW 18.4 mph - 0.00 in   Overcast
7:53 PM 24.1 °F 12.0 °F 16.0 °F 71% 29.75 in 10.0 mi WSW 13.8 mph - N/A   Clear
8:53 PM 26.1 °F 13.1 °F 18.0 °F 71% 29.75 in 10.0 mi WSW 17.3 mph - N/A   Overcast
9:53 PM 23.0 °F 11.1 °F 16.0 °F 74% 29.75 in 10.0 mi SW 12.7 mph - N/A   Mostly Cloudy
10:53 PM 23.0 °F 12.4 °F 16.0 °F 74% 29.77 in 10.0 mi WSW 10.4 mph - N/A   Clear
11:53 PM 21.0 °F 9.9 °F 15.1 °F 78% 29.77 in 10.0 mi WSW 10.4 mph - N/A   Clear